Weather History for LEPA - January, 2014

Change the Weather History Date:

Tuesday, January 7, 2014

  Actual Average Record
Temperature  
Mean Temperature 54 °F -  
Max Temperature 63 °F 57 °F 66 °F (2013)
Min Temperature 44 °F 39 °F 30 °F (2000)
Degree Days  
Heating Degree Days 12    
Growing Degree Days 4 (Base 50)    
Moisture  
Dew Point 50 °F    
Average Humidity 91    
Maximum Humidity 100    
Minimum Humidity 68    
Precipitation  
Precipitation 0.00 in 0.05 in - ()
Sea Level Pressure  
Sea Level Pressure 30.17 in    
Wind  
Wind Speed 1 mph ()    
Max Wind Speed 8 mph    
Max Gust Speed -    
Visibility 6.8 miles    
Events Fog    
Averages and records for this station are not official NWS values.
T = Trace of Precipitation, MM = Missing Value Source: Averaged Metar Reports

Daily Weather History Graph

Daily Weather History Graph

Search for Another Location

Airport or City:

Trip Planner

Search our weather history database for the weather conditions in past years. The results will help you decide how hot, cold, wet, or windy it might be!

Date:

Astronomy

Jan. 07, 2014 Rise Set
Actual Time 8:09 AM CET 5:41 PM CET
Civil Twilight 7:39 AM CET 6:11 PM CET
Nautical Twilight 7:06 AM CET 6:44 PM CET
Astronomical Twilight 6:33 AM CET 7:17 PM CET
Moon 11:51 AM CET (1/7) No Moon Set
Length of Visible Light 10h 31m
Length of Day
9h 31m
Waxing Crescent, 42% of the Moon is Illuminated
Jan 7
Waxing Crescent
Jan 8
First Quarter
Jan 16
Full
Jan 24
Last Quarter
Jan 30
New

Hourly Weather History & Observations

Time (CET) Temp. Dew Point Humidity Pressure Visibility Wind Dir Wind Speed Gust Speed Precip Events Conditions
12:00 AM 51 °F 49 °F 92% 30.14 in - NNW 3.5 mph - -  
12:00 AM 51.8 °F 50.0 °F 94% 30.12 in 6.2 mi Variable 1.2 mph - N/A   Mostly Cloudy
12:30 AM 51.8 °F 50.0 °F 94% 30.12 in 6.2 mi Calm Calm - N/A   Scattered Clouds
1:00 AM 49 °F 48 °F 94% 30.14 in 9 mi Calm Calm - -   Partly Cloudy
1:00 AM 50.0 °F 48.2 °F 94% 30.12 in 6.2 mi SE 1.2 mph - N/A   Scattered Clouds
1:30 AM 50.0 °F 50.0 °F 100% 30.12 in 6.2 mi Calm Calm - N/A   Mostly Cloudy
2:00 AM 51 °F 50 °F 93% 30.12 in - WNW 2.3 mph - -  
2:00 AM 50.0 °F 50.0 °F 100% 30.12 in 6.2 mi Calm Calm - N/A   Mostly Cloudy
2:30 AM 50.0 °F 50.0 °F 100% 30.12 in 6.2 mi Calm Calm - N/A   Mostly Cloudy
3:00 AM 51 °F 50 °F 93% 30.14 in - Calm Calm - -  
3:00 AM 50.0 °F 50.0 °F 100% 30.12 in 6.2 mi Calm Calm - N/A   Mostly Cloudy
3:30 AM 51.8 °F 50.0 °F 94% 30.12 in 6.2 mi Calm Calm - N/A   Mostly Cloudy
4:00 AM 51 °F 50 °F 95% 30.14 in 9 mi Calm Calm - -   Mostly Cloudy
4:00 AM 51.8 °F 50.0 °F 94% 30.12 in 6.2 mi Calm Calm - N/A   Scattered Clouds
4:30 AM 50.0 °F 50.0 °F 100% 30.12 in 6.2 mi Calm Calm - N/A   Scattered Clouds
5:00 AM 50 °F 49 °F 94% 30.14 in - Calm Calm - -  
5:00 AM 50.0 °F 48.2 °F 94% 30.12 in 6.2 mi Calm Calm - N/A   Scattered Clouds
5:30 AM 50.0 °F 48.2 °F 94% 30.12 in 6.2 mi Calm Calm - N/A   Scattered Clouds
6:00 AM 49 °F 48 °F 95% 30.14 in - Calm Calm - -  
6:00 AM 50.0 °F 48.2 °F 94% 30.12 in 6.2 mi Calm Calm - N/A   Scattered Clouds
6:30 AM 48.2 °F 46.4 °F 93% 30.12 in 6.2 mi Calm Calm - N/A   Scattered Clouds
7:00 AM 48 °F 47 °F 97% 30.14 in 9 mi Calm Calm - -   Partly Cloudy
7:00 AM 48.2 °F 46.4 °F 93% 30.12 in 6.2 mi Calm Calm - N/A   Scattered Clouds
7:30 AM 46.4 °F 46.4 °F 100% 30.12 in 6.2 mi Calm Calm - N/A   Scattered Clouds
7:42 AM 48.2 °F 46.4 °F 93% 30.15 in 6.2 mi Variable 2.3 mph - N/A Fog Patches of Fog
8:00 AM 48 °F 47 °F 97% 30.16 in - NNW 4.6 mph - -  
8:00 AM 48.2 °F 48.2 °F 100% 30.15 in 6.2 mi NW 3.5 mph - N/A Fog Patches of Fog
8:30 AM 46.4 °F 46.4 °F 100% 30.15 in 6.2 mi Calm Calm - N/A Fog Patches of Fog
9:00 AM 49 °F 47 °F 92% 30.17 in - Calm Calm - -  
9:00 AM 48.2 °F 48.2 °F 100% 30.15 in 6.2 mi Calm Calm - N/A Fog Scattered Clouds
9:30 AM 48.2 °F 48.2 °F 100% 30.18 in 5.0 mi Calm Calm - N/A Fog Patches of Fog
10:00 AM 51 °F 50 °F 94% 30.20 in - Calm Calm - -  
10:00 AM 50.0 °F 50.0 °F 100% 30.18 in 6.2 mi Calm Calm - N/A Fog Patches of Fog
10:30 AM 53.6 °F 51.8 °F 94% 30.18 in 6.2 mi Calm Calm - N/A   Scattered Clouds
11:00 AM 58 °F 53 °F 80% 30.21 in - Calm Calm - -  
11:00 AM 57.2 °F 55.4 °F 94% 30.21 in 6.2 mi Calm Calm - N/A   Scattered Clouds
11:30 AM 57.2 °F 55.4 °F 94% 30.18 in 6.2 mi SW 3.5 mph - N/A   Scattered Clouds
12:00 PM 59 °F 53 °F 76% 30.20 in - SSW 4.6 mph - -  
12:00 PM 59.0 °F 53.6 °F 82% 30.18 in 6.2 mi SW 5.8 mph - N/A   Mostly Cloudy
12:30 PM 59.0 °F 55.4 °F 88% 30.18 in 6.2 mi SSW 3.5 mph - N/A   Mostly Cloudy
1:00 PM 62 °F 54 °F 68% 30.18 in 12 mi SW 4.6 mph - -   Partly Cloudy
1:00 PM 60.8 °F 55.4 °F 82% 30.18 in 6.2 mi SW 3.5 mph - N/A   Scattered Clouds
1:30 PM 60.8 °F 53.6 °F 77% 30.15 in 6.2 mi WSW 6.9 mph - N/A   Scattered Clouds
2:00 PM 60 °F 53 °F 70% 30.17 in - SW 8.1 mph - -  
2:00 PM 59.0 °F 53.6 °F 82% 30.15 in 6.2 mi SW 8.1 mph - N/A   Scattered Clouds
2:30 PM 59.0 °F 53.6 °F 82% 30.15 in 6.2 mi WSW 5.8 mph - N/A   Scattered Clouds
3:00 PM 61 °F 54 °F 70% 30.16 in - SW 5.8 mph - -  
3:00 PM 59.0 °F 53.6 °F 82% 30.15 in 6.2 mi WSW 5.8 mph - N/A   Scattered Clouds
3:30 PM 59.0 °F 55.4 °F 88% 30.15 in 6.2 mi SW 4.6 mph - N/A   Scattered Clouds
4:00 PM 60 °F 54 °F 74% 30.17 in 16 mi WSW 2.3 mph - -   Partly Cloudy
4:00 PM 59.0 °F 53.6 °F 82% 30.15 in 6.2 mi SW 4.6 mph - N/A   Scattered Clouds
4:30 PM 59.0 °F 55.4 °F 88% 30.15 in 6.2 mi SSW 4.6 mph - N/A   Scattered Clouds
5:00 PM 59 °F 53 °F 76% 30.18 in - SSW 4.6 mph - -  
5:00 PM 59.0 °F 53.6 °F 82% 30.18 in 6.2 mi WSW 5.8 mph - N/A   Scattered Clouds
5:30 PM 57.2 °F 53.6 °F 88% 30.18 in 6.2 mi WSW 3.5 mph - N/A   Partly Cloudy
6:00 PM 56 °F 52 °F 82% 30.19 in - West 1.2 mph - -  
6:00 PM 55.4 °F 53.6 °F 94% 30.18 in 6.2 mi SSW 1.2 mph - N/A   Partly Cloudy
6:30 PM 53.6 °F 51.8 °F 94% 30.18 in 6.2 mi SSE 1.2 mph - N/A   Partly Cloudy
7:00 PM 52 °F 50 °F 89% 30.21 in 12 mi Calm Calm - -   Scattered Clouds
7:00 PM 51.8 °F 50.0 °F 94% 30.18 in 6.2 mi Calm Calm - N/A   Partly Cloudy
7:30 PM 50.0 °F 48.2 °F 94% 30.21 in 6.2 mi Calm Calm - N/A   Partly Cloudy
8:00 PM 50 °F 49 °F 95% 30.22 in - Calm Calm - -  
8:00 PM 50.0 °F 48.2 °F 94% 30.21 in 6.2 mi Variable 1.2 mph - N/A   Partly Cloudy
8:30 PM 48.2 °F 48.2 °F 100% 30.21 in 6.2 mi Calm Calm - N/A   Partly Cloudy
9:00 PM 48 °F 47 °F 96% 30.24 in - North 2.3 mph - -  
9:00 PM 46.4 °F 46.4 °F 100% 30.21 in 6.2 mi NE 1.2 mph - N/A   Partly Cloudy
9:30 PM 48.2 °F 46.4 °F 93% 30.21 in 6.2 mi Calm Calm - N/A   Partly Cloudy
10:00 PM 46 °F 45 °F 95% 30.24 in 9 mi Calm Calm - -   Scattered Clouds
10:00 PM 44.6 °F 44.6 °F 100% 30.21 in 6.2 mi NE 2.3 mph - N/A   Partly Cloudy
10:30 PM 44.6 °F 44.6 °F 100% 30.21 in 6.2 mi Variable 2.3 mph - N/A   Partly Cloudy
11:00 PM 45 °F 44 °F 97% 30.24 in - NNW 2.3 mph - -  
11:00 PM 44.6 °F 42.8 °F 93% 30.21 in 6.2 mi North 2.3 mph - N/A   Partly Cloudy
11:30 PM 44.6 °F 44.6 °F 100% 30.21 in 6.2 mi Calm Calm - N/A   Partly Cloudy